Independence Municipal Airport
Tuesday 11:35 PM
Temperature54° (80°/47°)
Dew Point50°
Relative Humidity88
%
Visibility10
mi
Pressure1019.6
mb
Wind Direction
Wind SpeedCalm
Precipitation Today0.00"

Last 30 Observations

Time PresWx Temp DP Feels RH% Vsby Pressure Ceiling Direction Speed 1h Precip
11:35 PM 10
mi
0.00"
11:15 PM 53° 49° 89
%
10
mi
1019.7
mb
Calm 0.00"
10:55 PM 55° 51° 88
%
10
mi
1019.7
mb
Calm 0.00"
10:35 PM 54° 50° 85
%
10
mi
1019.7
mb
Calm 0.00"
10:15 PM 56° 50° 80
%
10
mi
1019.3
mb
Calm 0.00"
9:55 PM 58° 52° 80
%
10
mi
1019.3
mb
Calm 0.00"
9:35 PM 57° 52° 82
%
10
mi
1019.3
mb
Calm 0.00"
9:15 PM 58° 52° 80
%
10
mi
1019.3
mb
Calm 0.00"
8:55 PM 61° 52° 73
%
10
mi
1019.0
mb
Calm 0.00"
8:35 PM 63° 54° 72
%
10
mi
1019.0
mb
Calm 0.00"
8:15 PM 65° 55° 72
%
10
mi
1019.0
mb
Calm 0.00"
7:55 PM 68° 56° 65
%
10
mi
1019.0
mb
Calm 0.00"
7:35 PM 70° 53° 56
%
10
mi
1019.0
mb
Calm 0.00"
7:15 PM 69° 55° 60
%
10
mi
1019.0
mb
Calm 0.00"
6:55 PM 70° 51° 51
%
10
mi
1019.0
mb
Calm 0.00"
6:35 PM 71° 50° 70°47
%
10
mi
1019.0
mb
Calm 0.00"
6:15 PM 74° 47° 73°38
%
10
mi
1019.0
mb
NNW
330°
3
mph
0.00"
5:55 PM 74° 48° 73°39
%
10
mi
1019.3
mb
N
10°
6
mph
0.00"
5:35 PM 75° 48° 74°39
%
10
mi
1019.3
mb
Calm 0.00"
5:15 PM 75° 49° 74°39
%
10
mi
1019.7
mb
Calm 0.00"
4:55 PM 77° 48° 76°36
%
10
mi
1019.7
mb
NE
50°
5
mph
0.00"
4:35 PM 73° 47° 72°40
%
10
mi
1020.0
mb
6,000
ft
NE
40°
7
mph
0.00"
4:15 PM 78° 46° 77°33
%
10
mi
1020.0
mb
Calm 0.00"
3:55 PM 78° 48° 77°35
%
10
mi
1020.3
mb
N
360°
5
mph
0.00"
3:35 PM 74° 47° 72°39
%
10
mi
1020.3
mb
8,000
ft
NW
310°
3
mph
0.00"
3:15 PM 80° 48° 79°33
%
10
mi
1020.3
mb
8,000
ft
N
350°
3
mph
0.00"
2:55 PM 80° 47° 79°32
%
10
mi
1020.7
mb
8,000
ft
WNW
300°
3
mph
0.00"
2:35 PM 72° 48° 71°42
%
10
mi
1020.7
mb
8,000
ft
N
10°
3
mph
0.00"
2:15 PM 74° 47° 73°39
%
10
mi
1020.7
mb
NNE
20°
6
mph
0.00"
1:55 PM 76° 48° 76°36
%
10
mi
1020.7
mb
E
90°
8
mph
0.00"